CZ-4 DEB

Satellite information

Favourite Embed

Satellite Type and Status

DEBRISIN ORBIT

Key statistics

Satellite CZ-4 DEB at a glance.

Uptime

6892

Days in orbit

Revolutions

≈ 15.0

Per day

Orbit

SSO

Sun Synchronous Orbit

Inclination

97.7

Latest

Satellite identification and parameters

Extended collection of information and parameters for CZ-4 DEB.

Object identification

Identified? True

Debris? True

Object name: CZ-4 DEB

International designator: 2006-046E

Object number (NORAD): 29509

Object ID (CCSDS): 29509

Country: PEOPLES REPUBLIC OF CHINA (PRC)

Current information (Y/N): Y

RCS size: SMALL

Orbital parameters

Period: 95.776 minutes

Inclination: 97.68 deg

SMA: 6934.225 km

Apoapsis: 582.571 km

Periapsis: 529.609 km

RAAN: 301.5262 deg

Eccentricy: 0.00381889

Argument of periapsis: 124.6324 deg

Mean anomaly: 235.8512 deg

Mean motion: 15.03508361 rev/day

Mean motion (dot): 0.00005556 rev/day2

B* drag term: 0.00040544728 1/REarth

Two-line elements (TLE)

Creation date: Sept. 4, 2025, 10:13 a.m.

Reference frame: TEME

Reference center: EARTH

Epoch: Sept. 4, 2025, 2:44 a.m. UTC

TLE line 0: 0 CZ-4 DEB

TLE line 1: 1 29509U 06046E 25247.11452212 .00005556 00000-0 40545-3 0 9991

TLE line 2: 2 29509 97.6800 301.5262 0038189 124.6324 235.8512 15.03508361 25473

Live tracking on map

Real-time ground track for satellite CZ-4 DEB.

In-orbit conjunctions

A list of the most updated potential collisions computed for object CZ-4 DEB.

Target Orbit TCA Probability of collision Miss distance Type
H-2A R/B SSO 2024-06-29 19:47:46 0.001510107 37.0 (m) ROCKET BODY

Associated space launch

It was announced that the two satellites had a design life of at least two years, and would be used to probe the space environment, radiation and its effects, record space physical environment parameters, and conduct other related space experiments.

CZ-4 DEB was lifted into orbit during the mission ‘Long March 4B | Shi Jian 6C & 6D’, on board a Long March 4B space rocket.

The launch took place on Oct. 23, 2006, 11:34 p.m. from Launch Complex 7.

For more information about the launch, click the button.

Launch to space Long March 4B | Shi Jian 6C & 6D
Long March 4B | Shi Jian 6C & 6D

Agency: N/A

Status: Launch Successful

Launch date: Oct. 23, 2006, 11:34 p.m. UTC

Rocket: Long March 4B

Launch pad: Launch Complex 7

Location: Taiyuan Satellite Launch Center, People's Republic of China

...

Latest news about this satellite

There are no fresh news available about this satellite. Check back as we update our databases every day.


Newsletter sign-up

Weekly statistics, charts and insights to help you stay on top of the space industry.